Regional Weather Roundup
Issued by NWS

Home | Current Version | Previous Version | Graphics & Text | Print | Product List | Glossary On
Versions: 1 2 3 4 5 6 7 8 9 10 11 12 13 14 15 16 17 18 19 20 21 22 23 24 25 26 27 28 29 30 31 32 33 34 35 36 37 38 39 40 41 42 43 44 45 46 47 48 49 50
000
ASUS43 KMKX 010821
RWRWI

WISCONSIN REGIONAL WEATHER ROUNDUP
NATIONAL WEATHER SERVICE MILWAUKEE/SULLIVAN WI
300 AM CDT SUN MAY 01 2016

NOTE: "FAIR" INDICATES FEW OR NO CLOUDS BELOW 12,000 FEET WITH NO
SIGNIFICANT WEATHER AND/OR OBSTRUCTIONS TO VISIBILITY.

WIZ001-002-006>008-014>016-023>028-010900-
NORTHWEST WISCONSIN

CITY           SKY/WX    TMP DP  RH WIND       PRES   REMARKS
SUPERIOR ARPT  CLEAR     38  30  74 NE7       30.23S WCI  32
ASHLAND        PTCLDY    38  34  85 NE9       30.21S WCI  31
HAYWARD        MOCLDY    35  31  85 NE10      30.17S WCI  27
SIREN          PTCLDY    39  32  76 NE6       30.16S WCI  34
CUMBERLAND     PTCLDY    37  32  81 NE5       30.13S WCI  34
RICE LAKE      PTCLDY    41  32  70 N8        30.15R
CHETEK         PTCLDY    42  32  67 NE8       30.12S
LADYSMITH      PTCLDY    40  32  72 NE9       30.14S WCI  35
EAU CLAIRE     CLOUDY    46  32  58 NE8       30.09S
MENOMONIE      CLOUDY    46  32  58 NE8       30.10S
NEW RICHMOND   CLOUDY    42  31  63 NE9       30.12S
OSCEOLA        CLOUDY    42  32  69 N5        30.16S
$$

WIZ003>005-009-010-017-018-010900-
NORTH CENTRAL WISCONSIN

CITY           SKY/WX    TMP DP  RH WIND       PRES   REMARKS
MANITOWISH WTR MOCLDY    36  34  95 N6        30.13F WCI  31
ARBOR VITAE    CLOUDY    37  34  89 N5        30.12F WCI  33
WOODRUFF       CLOUDY    37  34  89 N5        30.12F WCI  33
RHINELANDER    MOCLDY    36  31  82 N6        30.11F WCI  31
EAGLE RIVER    PTCLDY    33  32  96 N6        30.11F WCI  28
LAND O LAKES   CLOUDY    36  34  92 NE7       30.13F WCI  31
PHILLIPS       PTCLDY    36  32  86 NE7       30.12F WCI  30
TOMAHAWK       CLOUDY    37  32  81 N3        30.11S
MEDFORD        CLOUDY    40  32  73 NE10      30.08F WCI  34
MERRILL        CLOUDY    41  32  70 NE7       30.10S
$$

WIZ029-030-035-036-043>047-010900-
CENTRAL WISCONSIN

CITY           SKY/WX    TMP DP  RH WIND       PRES   REMARKS
WAUSAU         CLOUDY    46  30  53 VRB6      30.06F
MOSINEE        CLOUDY    43  30  61 NE10      30.08F
MARSHFIELD     CLOUDY    46  29  51 NE10      30.06S
STEVENS POINT  CLOUDY    43  29  57 NE6       30.07S
WAUPACA        DRIZZLE   45  35  66 N6        30.07S
WAUTOMA        LGT RAIN  44  35  70 NE13      30.05
WISC RAPIDS    CLOUDY    47  28  47 E9G18     30.07S
CAMP DOUGLAS   CLOUDY    45  43  93 NE8       30.05R
$$

WIZ011>013-019>022-031-037>040-048>050-010900-
NORTHEAST WISCONSIN

CITY           SKY/WX    TMP DP  RH WIND       PRES   REMARKS
ANTIGO         CLOUDY    40  32  73 NE12      30.08S WCI  33
SHAWANO        CLOUDY    46  34  62 NE9       30.08S
OCONTO         CLOUDY    43  34  70 N5        30.07S
STURGEON BAY   CLOUDY    43  32  65 N8        30.08S
GREEN BAY      CLOUDY    44  36  73 NE17      30.05F
MANITOWOC      LGT RAIN  42  38  85 N12G23    30.04S
APPLETON       DRIZZLE   43  32  65 NE12      30.04S
CLINTONVILLE   CLOUDY    43  32  65 NE7       30.07S
OSHKOSH        LGT RAIN  44  37  76 N17       30.03S
$$

WIZ032>034-041-042-053>061-010900-
SOUTHWEST WISCONSIN

CITY           SKY/WX    TMP DP  RH WIND       PRES   REMARKS
LA CROSSE      CLOUDY    48  37  65 NE12      30.05S
SPARTA         CLOUDY    46  37  71 NE9         N/A
VIROQUA        CLOUDY    43  38  82 NE14      30.03R
BOSCOBEL       CLOUDY    47  38  71 VRB7      30.01S
PRAIRIE DU CHI CLOUDY    46  38  74 N3        30.01S
PLATTEVILLE    CLOUDY    44  43  97 NE12      29.96S
$$

WIZ056-057-062-063-064-067-068-010900-
SOUTH CENTRAL WISCONSIN

CITY           SKY/WX    TMP DP  RH WIND       PRES   REMARKS
REEDSBURG      CLOUDY    44  38  79 NE9       30.02S
BARABOO/DELLS  CLOUDY    43  37  80 NE12      30.02S
LONE ROCK      CLOUDY    46  38  73 NE9       30.01S
MINERAL POINT  LGT RAIN  43  43 100 N10       29.97S
MADISON        CLOUDY    44  40  85 NE13      29.98F
MIDDLETON      CLOUDY    45  42  89 NE13      29.99F
WATERTOWN      CLOUDY    43  43 100 N9        29.98S
MONROE         CLOUDY    43  43 100 NE14G20   29.95S FOG
JANESVILLE     CLOUDY    45  45 100 NE8       29.95S FOG
$$

WIZ051-052-058>065-066-070>072-010900-
SOUTHEAST WISCONSIN

CITY           SKY/WX    TMP DP  RH WIND       PRES   REMARKS
MILWAUKEE      CLOUDY    43  41  93 N15       29.97F
WAUKESHA       CLOUDY    41  41 100 NE9       29.98F FOG
MILWAUKEE/TIMM CLOUDY    43  37  81 NE16G22   29.98F FOG
RACINE         LGT RAIN  43  41  93 NE15G24   29.98S FOG
BURLINGTON     CLOUDY    42  42  99 NE9       29.95F FOG
KENOSHA        CLOUDY    44  42  93 NE14      29.95S FOG
FOND DU LAC    CLOUDY    45  38  76 NE16      30.02S
SHEBOYGAN      CLOUDY    43  38  82 N12       30.01S
WEST BEND      CLOUDY    41  37  87 NE7       30.00S
JUNEAU         CLOUDY    42  38  87 N10       30.01F
$$

LSZ147-162-010900-
LAKE SUPERIOR

STATION/POSITION TIME  TEMP    WIND        PRES    WAVE
                       AIR SEA DIR/SP/G            HT/PER
                 (UTC) (F)     (DEG/KT/KT) (MB)    (FT/S)
W MID LAKE BUOY  0750   39 37   20/ 14/ 16 1023.7F   2/ 3
DEVILS ISLAND    0800   39      30/ 12/ 13 1024.3R
PORT WING        0700   38      40/  8/ 10 1023.7S
SAXON HARBOR     0700   39      50/  8/ 10 1022.4
$$

LMZ867-665-643>646-010900-
LAKE MICHIGAN

STATION/POSITION TIME  TEMP    WIND        PRES    WAVE
                       AIR SEA DIR/SP/G            HT/PER
                 (UTC) (F)     (DEG/KT/KT) (MB)    (FT/S)
CHAMBERS ISLAND  0700   42      10/ 10/ 12 1019.0
N MID LAKE BUOY  0750   40 39   10/ 10/ 12 1018.6R   2/ 4
NORTHPORT PIER   0700   41     360/  9/ 10 1018.6R
ALGOMA LAKESHORE 0700           40/ 15/ 23   N/A
KEWAUNEE LAKESHO 0700   42      30/ 12/ 15 1017.3F
SHEBOYGAN LAKESH 0800   41      10/ 17/ 19 1017.2R
PORT WASHINGTON  0700   44      10/  9/ 14 1016.6F
S MID LAKE BUOY  0750   42 40   40/ 14/ 16 1013.5R   2/ 4
KENOSHA   LAKESH 0800   43      30/ 18/ 21 1014.2S
$$

TC  - TEMPERATURE IN CELSIUS
VSB - VISIBILITY IN STATUTE MILES
WCI - WIND CHILL INDEX
HX  - HEAT INDEX





USA.gov is the U.S. government's official web portal to all federal, state and local government web resources and services.